USA 342

Last updated on Mon Sep 21 2026 00:03:02 GMT+0000 (Coordinated Universal Time)

1 55263U 23008A 26263.49580137 .00000000 00000+0 00000+0 0 9998 2 55263 0.0101 169.1490 0000354 72.5997 320.0533 1.00270138 13479
UTC large
Height (km)
Speed (km/s)
/
Latitude / Longitude
Inclination (degrees)
Orbital Period (minutes)
Azimuth
Elevation
Range (km)
Doppler Factor

Next 0 passes for location: London (51.5072 / 0.1276)

No passes found over London.
USA 342